This demonstration page uses our WeatherBlox Daily Observations layout. Learn more.

38.89511, -77.03637

Hourly Observations for September 28, 2020

Temp ( °F °C ) Dew Point ( °F °C ) Humidity (%) Winds ( mph kmh ) Pressure ( in mb ) Visibility ( mi km ) Precip ( " mm )
12:52 am 00:52 Cloudy 68 20 66 18.9 93 93 S 7 11 29.91 1013 10 16.0934 0 0
1:52 am 01:52 Cloudy 69 20.6 66 18.9 90 90 S 10 17 29.9 1013 10 16.0934 0 0
2:52 am 02:52 Cloudy 68 20 66 18.9 93 93 S 6 9 29.89 1012 10 16.0934 0 0
3:52 am 03:52 Cloudy 68 20 65 18.3 90 90 S 9 15 29.88 1012 10 16.0934 0 0
4:52 am 04:52 Cloudy with Light Rain 68 20 65 18.3 90 90 S 7 11 29.87 1012 10 16.0934 0.001 0.001
5:52 am 05:52 Cloudy 68 20 65 18.3 90 90 S 9 15 29.87 1012 10 16.0934 0.01 0.254
6:10 am 06:10 Cloudy 68 20 65 18.3 90 90 SSW 9 15 29.87 1011 10 16.0934 0 0
6:45 am 06:45 Cloudy 67 19.4 65 18.3 93 93 S 6 9 29.88 1012 10 16.0934 0 0
6:52 am 06:52 Cloudy 67 19.4 65 18.3 93 93 S 7 11 29.88 1012 10 16.0934 0 0
7:28 am 07:28 Cloudy 68 20 65 18.3 90 90 S 7 11 29.9 1012 10 16.0934 0 0
7:52 am 07:52 Cloudy 68 20 65 18.3 90 90 SSW 8 13 29.9 1012 10 16.0934 0 0
8:52 am 08:52 Cloudy 69 20.6 66 18.9 90 90 SSW 9 15 29.91 1013 10 16.0934 0 0
9:39 am 09:39 Mostly Cloudy 70 21.1 66 18.9 87 87 SSW 9 15 29.91 1013 10 16.0934 0 0
9:52 am 09:52 Mostly Cloudy 70 21.1 66 18.9 87 87 S 8 13 29.91 1013 10 16.0934 0 0
10:52 am 10:52 Partly Cloudy 72 22.2 67 19.4 84 84 S 9 15 29.91 1013 10 16.0934 0 0
11:52 am 11:52 Mostly Cloudy 76 24.4 67 19.4 74 74 S 9 15 29.91 1013 10 16.0934 0 0
12:52 pm 12:52 Mostly Cloudy 76 24.4 67 19.4 74 74 SSW 7 11 29.9 1012 10 16.0934 0 0
1:52 pm 13:52 Cloudy 77 25 68 20 74 74 S 12 19 29.88 1012 10 16.0934 0 0
2:52 pm 14:52 Partly Cloudy 79 26.1 68 20 69 69 S 12 19 29.86 1011 10 16.0934 0 0
3:52 pm 15:52 Mostly Cloudy 80 26.7 69 20.6 69 69 S 9 15 29.86 1011 10 16.0934 0 0
4:52 pm 16:52 Mostly Cloudy 80 26.7 69 20.6 69 69 S 8 13 29.85 1011 10 16.0934 0 0
5:52 pm 17:52 Partly Cloudy 78 25.6 69 20.6 74 74 S 12 19 29.84 1011 10 16.0934 0 0
6:52 pm 18:52 Partly Cloudy 76 24.4 69 20.6 79 79 S 8 13 29.85 1011 10 16.0934 0.001 0.001
7:52 pm 19:52 Mostly Cloudy 75 23.9 69 20.6 82 82 S 12 19 29.84 1011 10 16.0934 0 0
8:52 pm 20:52 Partly Cloudy 74 23.3 68 20 82 82 S 12 19 29.85 1011 10 16.0934 0 0
9:52 pm 21:52 Mostly Clear 73 22.8 68 20 84 84 S 9 15 29.87 1012 10 16.0934 0 0
10:52 pm 22:52 Mostly Cloudy 72 22.2 68 20 87 87 S 10 17 29.88 1012 10 16.0934 0 0
11:52 pm 23:52 Cloudy 73 22.8 68 20 84 84 S 10 17 29.87 1012 10 16.0934 0 0

Powered by AerisWeather